Wind_Speed
25 29 27 26 24 23 22 21 20 19 18 17 18 18 19 20 20 19 18 17 14 14 13 13 13 13 14 15 15 14 14 13 11 11 13 15 17 19 22 25 27 27 24 23 22 20 19 18 17 18 19 19 19 19 19 19 18 18 17 16 16 16 16 16 16 16 16 15 15 14 14 13 14 14 14 14 15 17 18 18 18 18 20 20 19
26 30 28 27 25 23 22 21 20 19 18 17 17 17 18 19 19 18 18 16 15 14 14 14 14 15 16 16 15 14 14 13 11 12 16 18 19 20 23 26 27 26 24 24 22 21 19 18 18 19 19 19 19 19 19 19 19 19 18 17 16 15 15 15 15 15 14 14 13 12 12 12 13 14 14 14 14 15 17 18 18 18 19 19 19
27 31 29 27 25 23 22 21 20 19 17 17 16 17 17 18 18 18 17 16 15 15 14 14 15 16 17 16 15 14 14 12 12 14 17 20 21 21 24 27 28 27 26 25 23 20 19 19 19 19 19 19 19 19 19 18 18 18 17 16 14 13 12 12 12 12 11 11 10 10 10 11 12 13 14 14 14 14 14 16 17 17 18 19 19
27 30 28 27 25 23 23 22 21 19 17 16 16 16 17 17 17 17 17 16 16 15 15 15 16 17 17 16 15 14 14 13 13 15 18 21 22 23 26 29 29 29 27 25 22 20 20 20 20 19 19 19 19 18 17 17 17 16 15 15 14 13 11 10 9 9 8 7 7 7 8 10 12 13 14 14 13 13 12 13 14 15 16 17 17
27 29 28 27 26 24 23 22 21 19 17 16 15 15 16 17 17 17 17 16 16 15 15 15 16 17 16 15 15 14 14 13 14 16 19 21 22 23 26 29 30 29 26 24 22 21 21 21 21 20 19 18 18 17 16 16 15 15 16 16 16 15 15 12 9 7 7 7 7 6 8 10 11 12 12 13 12 11 10 10 10 11 13 15 16
28 29 28 26 26 25 23 22 20 19 18 16 15 14 15 16 16 17 17 16 16 15 15 15 16 16 15 15 15 14 14 13 15 17 19 21 22 22 24 27 28 27 25 24 23 22 22 22 21 20 18 17 16 15 14 14 14 15 16 16 15 16 16 15 13 9 8 8 8 8 8 9 10 11 11 11 11 10 9 8 8 9 11 13 15
29 29 28 26 27 25 23 21 20 19 18 16 14 14 14 15 16 16 17 16 16 15 15 16 16 16 15 14 14 14 14 14 15 18 19 21 21 21 23 25 25 25 25 24 23 22 22 22 20 19 18 16 15 14 14 14 14 14 15 15 15 17 17 17 16 13 10 9 8 8 7 8 9 10 10 10 10 9 8 8 8 9 11 14 14
29 28 28 27 26 25 23 21 20 20 18 16 14 13 14 15 16 16 16 16 16 15 15 16 16 16 14 14 14 14 14 13 15 17 19 20 20 21 22 22 22 23 24 23 22 21 21 20 19 18 16 15 14 13 14 15 14 14 14 16 17 18 18 18 17 15 13 11 10 9 7 8 9 10 10 10 9 9 8 8 9 10 14 16 14
29 28 28 27 26 25 22 21 20 20 19 16 14 13 13 14 15 16 16 16 16 15 16 16 16 16 14 14 14 14 14 13 15 17 18 19 19 20 20 20 21 21 22 22 21 20 19 18 17 16 14 13 13 14 15 15 14 14 15 17 18 19 19 18 17 16 14 12 11 10 10 11 12 12 11 10 9 9 9 9 10 11 14 17 15
28 28 28 27 26 25 22 21 20 20 18 16 14 12 12 13 14 15 16 16 16 15 16 16 16 16 15 13 13 14 14 14 14 16 18 18 18 18 19 20 20 21 21 21 21 20 18 17 16 15 13 12 13 15 16 15 15 15 16 17 18 19 19 19 17 16 14 12 10 11 14 15 16 15 13 12 11 11 11 12 13 14 13 15 17
27 27 27 26 26 24 22 21 20 19 18 16 14 13 12 12 13 14 15 16 16 15 15 15 16 16 15 13 13 13 14 14 14 15 17 17 17 18 19 19 20 20 21 21 20 19 18 16 15 13 12 13 15 16 16 15 16 16 17 19 19 19 20 19 17 17 15 14 12 12 15 16 16 16 14 14 14 14 13 13 15 15 13 15 18
26 26 26 26 25 24 22 20 20 19 18 16 14 13 12 12 13 14 14 15 15 14 14 14 15 16 15 13 13 13 13 14 14 14 16 17 17 17 18 19 20 20 21 20 20 19 17 15 14 13 13 16 17 17 16 15 17 18 20 21 20 20 20 19 17 17 16 16 15 13 15 16 16 15 15 16 15 14 14 14 15 14 13 14 16
25 25 25 25 24 23 21 20 19 18 18 16 14 13 12 11 12 13 13 13 13 13 13 14 14 14 14 13 12 12 12 13 13 14 15 17 17 17 17 18 19 20 20 20 19 18 16 13 12 13 15 18 18 17 16 16 17 19 20 21 21 20 20 19 19 18 17 17 16 16 17 17 17 16 16 17 17 16 15 16 15 14 14 14 13
23 24 25 24 24 22 21 20 18 17 17 16 15 13 12 11 10 12 13 12 12 12 13 13 12 12 13 13 13 13 12 13 13 13 15 17 17 17 17 17 18 19 19 19 18 17 15 12 11 12 15 18 18 17 17 17 18 19 20 20 20 20 20 19 19 19 18 17 16 17 18 18 18 18 17 17 17 17 17 16 15 15 14 13 13
22 24 24 23 23 21 20 19 18 17 16 15 14 13 11 10 10 11 12 12 11 11 11 11 12 12 13 14 14 14 13 13 13 13 14 16 18 18 18 17 18 19 19 18 17 16 14 12 11 11 14 18 18 16 16 16 17 19 19 19 20 20 20 19 20 20 19 18 17 17 17 18 18 18 18 18 18 18 18 17 16 15 14 14 14
22 23 23 23 22 22 20 19 18 17 16 15 14 13 11 10 10 10 11 11 10 10 10 10 11 11 12 13 13 13 13 13 13 12 12 13 17 20 19 18 17 18 18 18 17 16 14 12 11 10 13 17 17 16 15 16 16 18 18 19 19 19 19 19 20 20 19 19 19 19 18 18 18 18 18 18 18 17 17 16 16 15 14 15 15
20 21 22 22 22 21 20 19 18 17 16 16 15 13 12 11 10 11 11 11 10 9 8 8 7 7 8 9 10 10 11 12 12 12 11 11 14 19 20 19 18 17 17 18 17 16 15 13 11 9 11 14 15 15 14 14 15 16 17 18 19 19 19 19 19 19 19 19 19 19 19 19 18 17 17 16 16 16 16 15 15 14 14 15 15
17 17 19 21 21 21 20 19 18 18 17 17 16 14 13 12 11 11 11 11 10 9 8 6 6 6 6 7 8 9 10 11 12 13 12 12 12 16 20 19 19 18 17 18 18 17 16 13 11 9 9 11 13 13 13 13 14 15 16 16 17 18 18 17 17 18 17 17 18 18 18 18 17 17 16 15 15 14 14 14 14 13 14 15 15
16 15 16 18 20 20 20 19 19 18 18 18 17 16 14 13 12 11 11 11 10 9 8 7 6 6 6 7 7 8 9 9 10 12 13 14 12 14 18 20 19 19 18 19 19 18 16 14 11 9 8 9 11 12 11 11 12 14 15 15 16 17 17 17 17 17 16 16 16 16 16 16 16 16 15 15 14 14 13 12 13 13 13 13 13
16 14 14 15 17 18 19 19 19 18 18 18 17 17 16 14 13 12 11 10 10 9 8 8 7 7 7 7 8 7 7 7 8 10 12 13 13 13 16 19 20 20 20 20 20 19 18 15 13 10 9 7 9 10 10 10 11 12 13 13 14 15 15 15 15 15 15 15 15 15 15 15 15 14 14 14 14 13 12 12 11 11 11 11 12
16 15 14 15 15 16 18 18 18 18 18 18 18 18 17 16 15 14 13 11 10 9 9 8 8 9 8 8 8 7 6 7 7 9 10 12 13 12 13 17 20 20 21 22 22 21 19 17 14 12 10 8 7 8 9 10 10 11 11 12 12 12 13 13 14 14 14 14 14 14 13 13 13 13 13 13 12 12 11 11 10 10 9 10 10
18 16 15 15 15 15 17 18 18 18 18 18 18 18 17 17 16 15 14 13 11 10 11 10 10 11 10 10 9 8 8 8 8 8 11 11 12 12 12 14 18 20 21 22 23 23 21 19 16 14 12 9 7 7 7 9 10 9 10 10 10 10 10 11 12 12 12 12 12 12 12 12 12 12 12 11 11 10 10 10 9 9 9 8 9
18 17 16 15 15 15 16 17 18 17 18 18 18 18 17 17 17 16 15 14 13 12 12 11 11 12 11 11 10 10 9 9 10 10 14 13 11 12 11 12 16 19 20 22 24 24 23 21 18 15 13 11 9 7 6 8 9 8 8 8 8 8 9 10 11 11 10 10 11 11 11 11 11 10 10 10 10 9 9 8 8 8 8 7 7
18 17 17 16 15 16 16 16 16 17 17 17 18 17 17 18 18 17 17 16 16 14 13 12 13 12 12 12 11 11 9 9 10 10 15 15 11 12 12 12 14 18 20 21 24 26 24 22 20 17 15 12 10 8 6 7 7 6 6 7 7 7 8 8 10 10 10 10 11 12 11 11 10 9 9 9 8 8 7 7 7 6 6 6 6
18 17 18 19 18 16 16 16 16 16 17 17 17 17 18 18 19 19 19 18 17 16 14 13 13 14 14 13 12 11 10 10 10 11 15 14 12 13 12 13 14 16 19 21 23 26 25 23 21 19 16 13 10 8 7 6 5 5 6 6 6 6 7 7 9 10 10 10 11 11 11 10 9 8 8 7 7 7 7 6 6 5 5 5 5
19 19 19 19 20 18 16 15 16 16 17 18 18 18 18 19 20 19 19 18 17 16 15 14 15 16 15 14 13 12 11 11 10 12 15 14 13 13 13 13 14 16 18 20 22 26 26 24 22 20 17 14 11 9 8 6 4 4 5 5 5 6 7 7 8 9 9 9 9 9 9 8 7 7 7 6 6 6 6 5 5 4 4 4 4
19 21 19 18 19 18 17 16 16 17 18 18 18 18 19 20 21 19 19 18 17 16 14 16 17 16 15 15 14 12 12 12 12 13 14 12 12 13 13 14 14 16 18 20 21 25 27 25 22 20 18 15 13 11 9 7 4 4 5 5 5 6 7 7 8 8 8 7 6 7 7 7 6 6 6 6 6 5 5 5 4 3 3 3 3
16 18 17 17 17 17 19 18 18 18 18 19 19 19 19 20 20 19 19 18 17 15 15 16 16 15 15 15 14 12 13 13 12 12 12 11 11 12 13 14 15 17 19 20 21 24 27 26 23 21 19 16 14 12 10 6 4 4 3 4 4 5 6 6 7 7 7 6 5 5 6 5 5 5 5 5 5 5 5 4 4 3 2 3 3
13 15 15 17 17 18 19 19 19 19 19 20 20 20 20 20 20 20 19 17 16 16 16 16 14 13 15 15 14 14 14 12 11 10 10 10 11 13 15 15 15 17 20 21 21 23 26 27 24 21 19 17 15 13 10 7 5 4 3 3 3 4 5 5 6 6 7 6 5 5 5 4 3 3 4 4 4 4 4 3 4 3 2 2 2
11 13 14 16 17 18 20 21 21 21 21 22 22 22 22 21 21 21 17 15 16 16 17 16 14 15 16 16 15 15 14 11 10 9 9 9 11 14 16 16 15 16 19 22 22 22 25 27 25 21 19 18 16 14 11 8 6 5 3 2 2 3 4 3 4 5 6 6 5 5 4 3 3 4 4 4 4 4 3 3 3 3 2 1 1
11 12 13 14 17 20 21 22 22 22 23 23 23 23 23 22 21 19 17 15 16 16 16 16 16 15 16 16 17 16 13 11 11 10 10 10 11 13 14 15 14 14 17 22 23 22 23 26 26 23 19 17 16 14 12 10 8 6 3 2 1 2 2 2 3 5 5 5 5 4 4 3 3 4 5 4 3 3 4 3 3 3 2 2 1
12 12 13 14 17 20 21 22 23 23 23 24 24 24 24 23 20 18 18 17 16 15 15 16 14 13 15 17 17 16 14 13 13 13 12 12 12 12 13 13 13 12 15 20 24 24 23 25 26 24 21 18 16 14 13 11 9 7 4 3 1 1 1 1 2 3 4 4 4 4 4 4 4 4 4 4 3 3 4 4 3 3 3 2 2
12 13 13 13 15 18 20 22 23 23 24 24 24 24 24 23 20 19 18 17 16 15 15 15 14 12 15 17 17 16 15 15 16 15 14 13 13 14 14 13 12 13 15 19 23 25 24 25 26 25 23 20 17 15 14 12 10 8 6 4 2 1 1 1 1 2 2 3 3 3 3 4 3 3 4 4 4 4 4 3 3 3 4 3 2
13 13 13 13 14 17 19 22 23 23 24 24 25 25 24 23 21 19 16 15 15 15 15 16 16 16 17 17 16 16 16 16 17 17 15 14 15 15 15 13 13 14 16 19 22 25 25 25 25 25 23 21 18 15 14 13 11 8 7 4 3 3 3 2 1 1 1 2 2 2 3 4 3 3 3 3 4 4 4 3 3 4 3 3 4
13 13 12 13 14 17 20 22 23 23 23 24 25 25 24 23 21 18 16 15 15 16 16 15 17 19 19 17 17 17 17 17 17 17 16 16 16 17 16 15 14 16 17 18 20 24 25 24 24 24 22 20 17 14 13 13 11 9 7 6 4 4 4 3 2 2 1 1 2 2 2 2 2 3 3 3 4 4 4 4 4 4 3 5 5
13 12 12 13 14 17 19 21 22 22 22 23 24 25 24 23 21 17 16 16 16 18 17 14 14 19 20 19 18 18 17 17 17 17 17 17 16 17 17 16 16 17 17 16 18 22 25 24 22 22 21 19 16 13 13 13 11 9 8 7 5 5 4 4 4 2 1 2 2 2 2 2 3 2 2 3 4 5 6 6 6 6 8 9 9
13 12 12 12 13 15 17 19 21 21 22 23 24 25 24 23 21 19 18 17 17 19 17 15 15 18 20 20 18 17 17 17 17 17 17 18 17 17 17 17 18 18 17 16 16 19 23 23 21 20 19 17 15 13 13 13 12 10 10 8 7 6 5 5 5 3 3 4 4 3 3 3 3 2 2 3 4 4 6 8 9 10 11 11 13
14 13 12 11 12 13 15 17 19 20 21 22 23 24 24 23 21 20 19 18 18 19 18 17 17 17 18 18 18 18 18 17 17 17 18 19 18 18 19 18 19 19 18 16 16 18 20 20 20 19 18 16 15 15 13 12 11 11 10 9 7 7 6 6 5 4 5 5 4 4 3 3 3 3 2 2 3 4 5 7 9 10 11 11 12
14 14 13 12 13 13 14 15 17 19 20 20 22 24 24 23 20 20 20 19 19 20 19 18 18 17 16 16 17 17 17 16 16 17 18 19 19 19 20 20 19 19 19 17 17 18 18 18 19 18 18 16 14 14 13 12 11 11 10 8 7 7 6 6 6 5 6 6 5 4 3 3 3 3 3 2 3 3 3 5 7 8 9 8 9
15 15 14 14 15 14 13 14 16 17 19 20 22 25 24 23 20 19 21 21 20 20 19 18 17 15 15 16 17 16 16 15 15 17 19 19 19 20 21 20 18 18 18 17 17 17 16 17 18 17 17 16 14 13 13 12 12 11 9 8 7 7 6 7 6 6 6 7 6 5 5 5 3 3 4 3 3 2 3 3 4 5 5 5 5
15 15 15 15 15 13 13 14 14 15 16 17 21 24 23 21 20 19 21 21 20 20 19 19 17 15 14 15 16 16 16 15 15 18 19 19 21 22 21 18 16 15 15 16 15 15 15 16 17 16 15 16 15 14 14 12 12 11 11 10 9 8 7 7 6 6 7 8 8 7 7 7 4 3 4 3 3 3 3 2 2 2 2 4 4
16 15 15 14 14 13 12 13 13 12 13 14 17 20 19 19 19 20 21 21 20 20 19 20 18 14 13 14 15 16 16 16 16 18 18 19 21 21 19 16 14 14 14 14 14 14 15 15 17 17 16 16 15 15 14 12 12 12 11 11 10 9 8 8 8 8 9 9 9 9 8 7 5 4 3 3 3 3 4 3 2 2 1 1 2
18 17 16 16 15 14 13 13 13 12 12 14 16 16 16 17 19 21 23 22 20 20 20 19 16 12 12 14 16 17 17 16 16 18 18 18 20 20 20 18 15 14 13 14 14 15 15 16 17 17 17 16 15 14 14 13 12 11 10 10 10 9 8 8 10 10 10 9 7 7 6 6 5 4 3 3 3 3 4 4 3 4 3 2 1
19 19 19 18 17 15 15 15 15 13 13 14 14 15 16 17 19 22 23 22 20 19 19 17 14 11 12 15 16 16 16 15 16 18 17 17 19 20 20 19 16 15 14 13 14 15 16 17 17 17 17 17 16 15 14 13 12 10 9 10 9 9 8 9 11 12 10 7 6 5 5 5 5 4 4 4 3 3 3 3 4 4 3 3 2
20 20 20 19 17 16 15 16 17 16 16 15 15 15 16 18 20 23 23 22 21 20 17 15 14 13 13 15 15 14 14 14 15 17 16 16 18 19 19 18 17 16 14 13 14 14 15 17 17 17 17 16 16 15 15 14 12 10 9 9 8 8 9 11 12 11 10 8 6 6 6 5 6 5 4 4 4 4 4 4 4 3 3 2 3
21 22 21 19 18 18 16 16 17 18 17 18 18 17 18 19 21 22 22 23 22 21 18 15 14 13 13 14 15 15 14 13 15 17 17 17 18 18 18 17 15 15 13 13 14 15 15 16 17 17 17 17 15 14 14 14 13 13 12 10 8 5 5 8 11 10 9 8 6 6 7 6 6 6 4 4 4 4 4 3 3 2 2 2 2
22 21 21 19 18 19 18 17 17 17 17 17 18 19 20 20 21 21 21 21 21 20 18 16 13 12 13 14 15 15 14 13 16 18 18 18 18 17 17 16 16 14 14 14 15 16 16 16 17 17 18 18 16 14 14 14 14 15 14 11 9 6 3 3 7 9 9 9 7 6 7 7 6 6 5 6 5 4 4 3 2 2 2 2 1
21 20 20 19 18 18 19 19 17 17 17 18 19 21 22 22 21 20 21 21 20 18 17 15 13 12 13 13 13 14 13 13 16 19 19 19 18 17 17 18 17 15 15 15 15 16 16 17 17 17 17 18 17 15 13 13 14 13 13 11 10 8 6 3 3 5 7 10 10 9 9 7 6 6 6 6 5 4 4 2 2 2 2 2 1
20 20 21 20 19 19 20 20 19 17 17 19 20 22 23 24 23 22 23 23 22 20 17 15 14 13 13 13 13 14 14 14 16 19 21 20 18 19 19 19 18 17 16 16 15 16 17 17 17 17 17 17 16 14 12 11 11 10 11 12 12 10 8 5 3 4 6 8 9 11 11 9 8 7 6 6 5 4 3 2 2 3 3 2 1
20 20 21 20 19 18 19 20 20 18 17 18 20 22 24 25 25 24 24 24 23 22 19 16 15 14 15 14 13 14 15 15 16 19 21 20 18 19 20 19 18 17 17 16 15 16 16 16 16 16 15 15 15 15 13 11 9 10 11 12 13 12 9 6 4 5 7 7 6 9 12 11 10 7 6 6 6 5 3 3 3 3 2 2 1
18 19 20 19 18 17 18 19 20 19 18 18 19 21 24 26 25 24 23 23 23 23 21 19 16 15 16 15 14 15 15 16 18 19 20 19 19 20 20 19 17 16 16 15 15 15 15 15 15 15 14 14 14 14 13 12 11 11 12 12 12 11 9 6 5 5 7 7 5 7 11 11 9 8 7 6 5 5 4 3 3 2 2 1 1
Wind_Direction
172 173 176 171 171 172 172 172 170 171 170 171 172 178 182 183 181 178 176 174 171 165 161 160 158 152 143 136 134 129 120 114 112 109 102 98 97 103 113 120 123 125 124 122 119 114 109 105 104 104 104 104 103 103 102 101 100 98 97 95 96 98 99 100 100 99 98 98 97 95 95 95 92 90 93 96 93 89 87 85 87 87 85 82 81
170 171 175 171 171 171 172 172 171 171 171 173 173 178 180 181 178 176 174 170 167 161 158 156 152 146 140 138 136 128 122 120 116 109 103 104 104 107 113 119 123 125 124 122 120 114 110 108 107 106 106 106 104 102 101 102 101 99 97 95 94 95 97 98 97 98 99 99 95 91 92 95 96 95 93 96 97 96 93 89 87 86 85 84 82
168 169 173 171 171 171 171 172 173 173 172 175 175 179 179 179 175 173 170 166 163 158 157 154 149 144 142 140 135 129 126 124 115 108 106 108 108 108 112 117 122 122 121 119 117 113 110 110 110 108 106 107 105 103 102 102 101 100 97 94 93 93 98 101 102 101 99 96 95 95 93 94 97 97 97 99 99 100 99 94 89 82 81 82 79
169 168 172 171 171 171 172 173 174 175 174 175 176 179 178 177 174 170 166 163 161 157 157 152 149 146 144 142 136 134 129 123 115 110 110 112 112 112 114 117 119 119 118 116 114 113 112 113 112 110 108 107 106 104 102 101 98 96 94 89 85 84 88 98 106 107 103 94 92 102 102 101 103 102 102 103 104 105 102 97 92 84 81 80 77
170 170 173 171 170 171 172 173 175 177 176 176 176 176 175 176 172 168 165 163 160 158 157 152 151 148 147 145 140 138 131 125 117 114 114 116 116 116 117 119 120 119 117 116 115 115 116 116 114 112 109 107 106 104 103 100 96 93 90 85 78 76 75 80 90 99 102 95 91 101 107 107 107 108 107 105 107 110 108 102 95 90 90 87 83
171 173 174 172 171 171 172 173 176 178 177 177 175 173 172 174 171 168 166 163 161 158 157 154 153 152 152 148 144 141 134 128 119 117 118 120 120 118 120 122 124 122 120 121 120 119 118 117 115 113 112 111 110 109 106 101 97 93 89 83 75 72 70 71 76 83 91 92 93 96 104 110 111 110 108 108 110 111 113 110 101 96 100 95 90
174 174 175 174 172 171 172 173 177 180 180 178 174 170 170 171 170 170 169 165 163 161 159 158 157 157 156 151 148 145 139 131 122 121 122 123 123 121 123 126 128 126 125 126 126 126 123 122 121 120 120 119 118 114 107 100 96 93 89 83 77 71 67 66 68 73 82 87 91 93 99 106 112 113 107 109 114 115 112 111 102 99 109 100 93
176 177 176 175 174 173 172 174 178 182 182 178 173 168 168 169 171 172 171 168 167 166 163 161 161 162 160 155 153 149 143 135 126 124 125 126 126 126 127 129 130 130 129 130 131 132 131 129 128 128 126 124 123 115 104 100 97 92 87 82 77 71 67 65 65 69 75 81 84 85 91 96 103 110 105 103 109 113 109 107 101 97 106 98 90
178 179 176 176 176 175 174 176 180 183 183 179 173 167 167 168 171 174 173 172 172 171 168 166 165 166 164 160 157 152 146 139 130 128 128 128 128 128 128 129 130 130 130 129 130 133 133 131 130 129 127 127 123 112 105 103 100 93 85 79 75 71 68 66 67 69 70 72 73 76 85 92 96 100 99 98 103 107 102 98 99 95 103 102 95
181 181 178 177 177 178 177 179 182 184 184 179 174 167 166 168 171 175 177 177 176 176 173 171 170 170 169 164 159 156 150 143 136 131 131 131 130 129 129 130 131 131 130 130 130 132 133 131 131 131 131 130 120 110 107 104 97 88 80 75 71 69 66 66 69 70 69 66 64 72 81 85 88 91 92 94 99 103 100 98 99 94 96 102 101
183 182 179 178 179 180 180 181 185 185 184 180 176 170 166 169 174 177 180 180 181 181 177 175 175 174 173 169 162 160 156 148 142 136 134 135 133 131 132 133 133 133 133 133 132 133 134 135 134 131 132 125 114 109 106 100 90 81 75 71 67 65 64 64 67 69 68 65 65 74 82 83 84 88 90 90 95 99 97 99 104 101 96 100 101
184 184 180 180 181 181 181 184 187 186 184 182 178 174 169 170 176 180 181 184 184 183 180 179 180 179 177 174 168 163 160 153 147 141 137 138 138 136 136 137 136 135 136 136 135 136 138 140 136 130 127 119 112 108 102 92 83 76 72 68 65 64 63 62 64 67 65 65 69 75 81 84 85 86 87 88 92 97 96 96 103 104 103 105 104
185 184 180 181 181 181 183 186 188 187 185 183 181 178 174 171 177 182 184 186 186 184 185 186 186 183 181 182 175 168 165 159 152 146 142 142 143 142 140 140 139 138 140 141 140 140 141 142 137 130 125 117 110 103 93 85 79 74 70 67 66 65 65 65 65 65 65 66 67 70 74 79 83 84 85 86 88 91 92 93 95 97 102 107 104
186 183 181 182 181 181 184 186 188 188 186 184 183 180 177 175 176 180 184 186 185 187 189 191 189 186 186 187 182 178 171 163 159 153 148 146 146 147 145 145 144 143 145 146 145 143 143 144 139 131 122 112 103 94 86 81 77 73 69 67 68 68 68 68 67 66 65 64 63 63 66 70 75 80 83 83 83 85 88 91 92 95 99 102 98
189 184 182 182 181 182 183 186 188 188 188 186 184 182 179 176 175 175 180 183 184 187 188 191 191 190 193 192 187 181 174 168 164 159 154 149 148 150 151 152 151 149 152 152 150 147 147 148 144 132 119 108 99 91 84 79 76 72 68 67 68 69 69 68 68 66 63 61 61 60 59 62 68 74 77 77 78 78 81 86 90 94 96 95 94
191 187 183 182 183 182 181 184 186 187 187 187 186 183 179 175 172 171 175 180 180 182 182 186 187 187 193 194 188 178 175 174 171 170 164 155 150 153 156 157 157 156 158 159 155 152 152 154 151 138 122 110 100 93 86 80 77 72 68 69 70 70 70 69 68 67 65 62 61 59 57 57 61 65 68 72 74 74 75 77 82 86 88 91 93
191 187 184 183 183 182 181 182 183 184 185 186 186 182 179 174 172 173 174 178 178 183 187 183 176 173 178 183 183 175 174 178 179 181 177 171 155 152 159 161 161 162 163 163 160 157 158 162 159 150 132 115 104 97 91 83 79 73 68 70 72 72 72 71 70 69 68 66 64 62 59 57 57 58 59 62 66 70 73 74 76 78 82 87 89
185 183 183 185 184 183 182 180 181 182 183 184 185 182 181 179 177 178 179 182 186 192 194 186 173 166 166 167 172 169 170 177 182 183 185 190 169 152 158 162 163 165 166 165 163 161 163 169 168 163 149 125 111 103 97 88 82 75 70 72 72 72 73 71 69 68 67 66 65 64 63 62 60 58 56 55 57 60 65 72 75 74 77 82 84
181 176 178 183 184 184 181 180 182 181 183 184 184 184 185 186 185 187 187 190 195 196 196 196 186 172 172 168 169 168 167 174 179 182 191 199 187 157 155 161 165 167 168 167 165 164 167 174 176 174 165 141 120 110 103 93 88 78 69 71 71 70 70 68 66 64 63 61 60 59 60 62 62 60 56 54 54 54 55 60 68 71 72 77 81
178 173 175 179 182 183 180 182 183 181 183 184 185 187 188 191 192 196 198 200 202 200 201 201 190 178 176 171 171 174 172 176 176 180 193 201 196 172 155 159 166 169 170 170 168 167 171 179 184 182 176 158 130 116 108 99 93 80 69 71 71 70 69 66 63 60 59 57 54 53 53 55 58 59 57 55 54 53 53 55 61 64 65 71 77
173 171 174 177 182 184 184 185 183 182 184 185 188 191 191 195 198 201 203 206 208 205 200 193 183 179 177 173 176 183 186 192 188 183 199 209 202 189 167 160 164 170 172 173 173 170 174 183 190 189 183 173 148 126 116 108 100 81 70 73 72 72 71 66 62 58 57 56 54 53 52 52 52 54 55 56 55 53 54 56 60 60 61 67 74
171 171 177 178 184 188 190 189 185 185 186 188 193 196 198 199 202 204 205 206 206 202 195 187 181 180 183 187 191 200 202 208 212 201 211 219 207 199 187 170 165 169 173 176 177 175 177 186 194 194 189 183 169 146 126 116 105 82 70 74 71 71 72 67 64 62 61 62 61 58 55 54 51 49 49 52 53 52 54 56 59 61 63 67 71
174 175 182 178 186 191 193 194 189 189 190 193 197 200 202 204 206 207 208 205 202 201 197 194 190 188 194 201 206 211 209 212 220 214 218 222 207 200 196 182 170 169 173 177 179 178 179 187 194 196 193 191 182 165 139 121 107 86 76 76 71 68 68 66 61 57 62 68 70 65 60 56 52 50 49 50 48 48 53 58 62 61 64 71 73
176 179 187 177 186 194 195 198 192 191 193 197 200 203 205 208 212 212 213 209 205 206 204 203 200 200 204 209 211 211 207 207 211 210 218 219 204 201 197 188 178 172 174 177 179 179 181 187 192 196 196 196 190 177 156 132 110 89 83 80 73 65 64 60 50 45 49 57 65 65 61 55 49 48 49 51 48 45 47 53 64 64 64 72 80
177 181 197 187 190 196 197 198 191 192 195 199 202 205 208 212 216 217 217 212 207 206 206 205 204 206 206 207 207 203 202 203 203 206 216 214 200 200 198 192 183 175 176 177 179 179 181 187 191 194 196 197 193 182 165 146 116 93 86 81 75 66 60 50 44 44 40 41 50 55 56 51 44 41 44 48 47 42 41 46 57 60 65 74 81
180 186 207 201 197 197 199 198 190 193 197 201 204 206 210 216 218 216 214 208 204 204 204 204 204 205 201 202 203 198 202 205 205 207 214 212 200 198 196 193 184 177 178 177 179 180 181 187 190 192 194 195 193 185 170 156 133 104 89 81 74 61 54 49 51 54 45 37 40 48 52 48 40 36 37 43 43 34 34 39 45 51 64 74 80
187 194 210 209 204 198 199 198 194 198 199 201 205 209 213 216 216 213 209 204 201 202 202 202 201 203 204 204 202 200 205 209 209 210 213 212 205 199 196 193 183 178 179 178 180 181 182 186 189 190 192 194 191 186 177 166 153 123 99 83 68 51 46 53 61 60 54 51 50 51 49 43 37 35 34 35 38 30 21 25 32 40 54 60 71
194 201 211 213 211 202 199 199 199 202 201 202 205 211 217 218 215 212 209 202 199 199 201 206 204 204 210 208 203 203 209 214 217 217 215 210 204 199 195 193 184 179 179 180 180 181 183 185 187 188 190 192 191 188 183 178 170 146 113 83 66 48 43 56 66 61 62 65 59 48 45 43 37 39 41 33 31 22 7 9 16 26 38 37 55
201 205 211 213 212 204 202 203 204 205 204 205 205 209 217 221 218 212 207 200 199 199 202 211 208 206 212 211 208 209 211 219 224 217 207 202 198 195 194 192 186 181 180 181 182 182 184 186 187 188 189 190 190 188 188 189 186 170 132 87 66 45 44 58 64 61 68 69 58 51 51 53 46 47 51 41 31 19 13 14 14 17 24 13 36
205 209 213 214 211 207 207 207 206 206 207 208 208 210 215 219 218 212 203 196 199 201 205 212 209 212 216 211 212 214 214 217 220 211 203 201 196 193 194 193 190 187 182 182 184 184 184 186 187 188 191 191 189 189 190 193 194 189 166 113 63 27 35 60 65 63 72 72 67 70 71 66 55 51 50 45 41 34 28 21 7 4 359 338 7
204 208 212 214 211 210 210 209 209 209 210 211 212 214 218 221 219 212 202 194 198 200 205 212 211 217 218 211 211 214 215 214 213 213 210 210 204 196 195 194 192 191 186 184 186 186 185 187 188 189 192 194 192 191 190 191 197 199 188 161 87 10 20 56 63 66 75 75 73 78 80 69 55 47 47 44 45 38 17 11 10 0 354 340 1
201 205 212 213 213 214 214 215 216 215 214 215 217 219 222 225 223 216 207 199 199 197 200 210 215 218 212 208 213 214 215 216 213 216 217 217 212 201 197 194 191 191 188 187 187 187 187 188 190 191 194 196 196 194 191 191 199 201 193 183 191 334 2 54 54 69 76 70 69 80 83 69 57 49 49 46 37 28 11 14 23 12 5 2 22
199 203 211 214 218 222 222 222 222 219 218 218 221 223 225 228 229 223 214 204 202 200 197 204 210 212 206 207 216 217 216 217 215 218 219 219 215 206 202 198 194 194 189 189 190 189 189 191 192 193 197 199 199 199 197 198 201 201 200 200 197 201 188 183 81 93 89 73 73 87 83 63 58 58 55 47 34 26 19 24 27 13 6 4 20
202 205 208 209 218 225 227 227 225 223 222 222 224 227 228 231 231 226 219 209 207 208 204 199 194 199 207 208 215 219 219 221 220 222 224 221 217 211 206 202 200 198 192 189 191 191 191 193 193 195 199 200 202 202 204 205 203 200 205 208 196 182 182 198 195 153 98 78 97 96 72 56 64 70 61 45 35 31 25 29 17 1 4 21 43
204 205 204 207 214 223 228 229 229 229 228 227 228 229 232 235 233 227 222 215 214 216 209 199 189 193 206 210 213 219 223 227 227 227 229 228 223 214 205 204 203 199 196 192 192 193 193 193 193 195 199 201 203 205 205 206 204 201 204 204 191 183 189 202 203 190 161 129 135 102 77 77 94 89 69 51 50 52 44 43 33 27 58 69 69
201 201 206 212 216 221 228 232 234 235 234 233 232 231 234 236 235 231 228 220 217 217 212 213 206 199 205 209 213 220 224 227 228 229 233 233 229 220 207 202 203 200 197 196 195 195 194 193 194 197 201 202 203 205 206 205 205 201 200 201 195 196 205 206 203 204 199 179 167 138 120 123 118 109 91 72 68 67 64 66 67 74 89 90 86
200 204 213 222 225 226 229 234 237 240 240 239 236 235 236 236 235 233 230 224 218 217 216 225 223 209 209 212 215 223 225 226 226 227 232 232 228 224 214 203 202 200 196 197 195 193 194 195 196 198 204 206 206 209 208 204 201 198 198 201 201 202 207 208 205 204 202 193 186 176 157 141 128 129 129 105 91 79 74 78 83 90 98 99 94
205 212 222 231 238 238 236 238 241 243 244 243 239 239 238 235 235 232 229 225 220 219 221 226 226 219 219 222 225 227 225 225 226 224 229 230 224 222 216 205 202 199 194 192 187 185 190 197 201 201 202 208 213 213 209 203 198 198 201 202 204 207 203 209 214 205 200 198 195 194 171 150 149 158 162 132 111 92 84 87 89 94 96 93 90
211 219 227 235 241 244 246 247 249 248 249 247 243 241 238 234 234 229 227 227 223 222 225 227 228 228 229 234 237 237 231 227 226 224 225 227 221 218 215 204 199 197 191 188 184 185 188 194 202 203 201 204 214 216 211 207 203 203 206 203 202 206 202 206 218 210 202 205 206 211 197 173 166 172 171 150 133 119 102 99 97 97 90 80 77
218 227 234 239 243 245 248 253 254 254 253 251 248 244 238 235 234 227 227 230 227 225 229 232 233 233 234 239 243 242 238 230 224 222 222 224 220 216 214 203 195 194 191 189 189 192 194 196 200 203 205 206 208 214 214 212 211 205 200 195 186 185 196 207 217 211 206 215 217 212 206 195 174 166 173 167 158 153 135 120 115 108 90 72 65
221 231 238 241 243 242 243 249 253 253 251 251 252 249 243 240 237 230 229 231 232 232 234 236 236 235 235 240 244 243 238 231 226 222 220 220 216 214 216 206 196 197 195 195 197 200 205 207 205 206 214 212 204 206 210 211 211 198 182 177 177 182 197 206 212 220 219 225 229 218 204 201 191 173 178 185 180 173 172 158 144 137 97 69 57
216 224 233 235 238 236 235 241 245 246 243 243 248 251 250 248 239 231 232 235 238 240 241 243 241 238 242 245 245 243 237 228 224 223 222 218 210 209 215 209 203 204 201 201 205 210 213 214 210 206 208 211 206 203 204 205 205 200 189 182 183 187 199 206 205 222 232 232 235 223 202 199 204 195 191 204 199 183 184 189 189 193 189 81 59
219 226 234 238 240 239 240 243 243 239 236 238 244 245 246 244 235 229 234 239 244 248 249 250 246 242 247 247 241 238 235 226 219 220 221 215 209 209 211 207 205 204 200 203 206 212 215 214 212 207 203 202 204 206 207 208 205 201 194 185 187 193 207 219 215 221 232 234 233 224 206 206 208 202 205 210 203 194 188 192 207 222 233 242 260
223 229 237 243 245 246 251 256 256 249 241 241 242 241 238 235 231 229 234 241 247 255 257 253 249 243 244 244 240 236 235 229 221 216 214 209 209 213 211 204 203 203 201 206 208 208 211 211 210 210 208 203 201 205 209 214 216 209 195 182 188 202 207 218 224 225 226 224 221 217 212 209 202 201 211 206 196 200 197 196 208 224 238 247 257
224 230 237 243 246 249 253 259 263 260 254 248 240 236 235 233 231 231 235 240 245 253 257 254 251 249 244 242 240 237 234 230 222 213 206 202 203 212 215 206 204 207 205 211 213 210 209 211 213 213 214 212 209 213 213 215 218 215 209 194 188 206 214 214 222 229 223 216 215 213 209 203 200 205 208 199 195 197 198 203 203 209 231 247 255
228 233 239 244 249 252 253 254 259 259 255 251 242 236 234 233 231 232 235 240 246 254 262 264 260 254 247 243 242 239 233 225 216 206 202 202 200 207 218 215 210 212 212 213 214 214 213 213 217 219 220 219 219 222 221 218 213 207 212 213 202 216 232 217 214 215 209 207 212 211 205 203 203 206 203 192 195 199 193 193 193 196 221 239 249
230 234 241 248 251 253 255 254 254 254 250 247 243 239 237 235 233 234 236 240 247 257 264 266 261 254 246 243 243 239 231 221 210 200 201 208 205 205 216 219 214 213 215 213 212 215 217 217 220 223 224 224 225 227 225 222 214 208 213 217 217 229 253 233 212 202 192 192 199 203 204 207 206 208 206 194 193 200 192 183 188 206 224 237 252
232 236 244 251 255 256 258 257 253 250 248 244 242 242 243 242 240 238 238 239 243 252 259 260 255 251 245 242 242 236 227 218 210 203 203 208 207 202 205 210 209 208 211 211 212 215 215 218 221 223 225 225 226 225 223 223 219 218 220 215 215 226 242 263 223 208 200 189 185 190 199 204 211 216 202 184 194 205 191 188 206 221 233 244 261
234 240 246 252 257 259 260 261 257 250 248 247 245 245 246 248 248 245 243 243 244 249 255 256 250 244 241 241 239 232 222 216 212 207 205 206 205 202 199 202 205 205 207 208 212 216 216 217 220 221 223 222 221 218 217 222 227 233 234 226 220 222 231 242 220 211 214 198 189 194 194 189 202 216 192 173 199 212 196 210 223 229 244 257 278
239 244 249 255 261 264 267 270 266 255 247 247 251 251 250 251 251 250 249 250 251 253 256 256 250 240 237 240 237 232 224 215 208 204 203 202 201 201 199 201 205 204 205 207 211 215 217 218 218 218 220 219 218 216 214 216 225 236 241 238 231 226 227 237 241 223 213 210 207 204 196 189 195 197 175 179 205 208 201 217 223 233 253 265 293
242 248 252 258 264 270 275 277 277 269 254 246 249 255 256 254 254 253 253 255 257 259 260 259 254 242 238 239 235 232 226 212 201 198 201 198 196 199 200 201 206 209 208 209 212 215 215 216 215 214 215 218 220 220 216 213 216 223 232 239 239 237 236 247 278 265 224 219 220 205 197 194 188 175 170 186 200 196 195 201 208 221 231 219 122
Height
1498 1502 1504 1506 1509 1510 1513 1514 1516 1517 1517 1518 1519 1520 1521 1521 1521 1521 1521 1522 1523 1524 1524 1526 1527 1528 1529 1529 1529 1530 1530 1530 1530 1531 1531 1531 1530 1530 1529 1530 1532 1534 1536 1537 1538 1539 1539 1540 1540 1541 1541 1541 1542 1542 1543 1543 1543 1543 1543 1543 1543 1544 1544 1544 1545 1545 1545 1546 1547 1547 1547 1546 1546 1545 1545 1545 1545 1546 1546 1546 1546 1546 1546 1545 1546
1497 1501 1505 1507 1509 1511 1513 1515 1516 1517 1518 1519 1520 1521 1521 1522 1522 1522 1522 1523 1524 1525 1525 1527 1528 1529 1529 1530 1530 1531 1531 1531 1532 1532 1532 1532 1532 1531 1531 1531 1533 1534 1536 1538 1539 1540 1540 1541 1542 1542 1543 1543 1543 1544 1544 1544 1544 1544 1544 1544 1545 1545 1545 1545 1545 1545 1546 1547 1548 1547 1547 1546 1546 1546 1546 1546 1546 1547 1547 1547 1547 1547 1547 1547 1547
1498 1502 1505 1507 1509 1512 1514 1516 1517 1518 1519 1520 1521 1521 1522 1522 1523 1523 1523 1524 1524 1526 1527 1528 1529 1530 1530 1531 1531 1532 1532 1532 1533 1533 1533 1533 1533 1533 1532 1533 1534 1535 1537 1539 1540 1541 1541 1542 1543 1543 1544 1544 1545 1545 1545 1546 1545 1546 1546 1546 1546 1546 1546 1546 1546 1546 1547 1548 1548 1547 1547 1547 1547 1547 1547 1547 1547 1547 1548 1548 1549 1549 1548 1548 1548
1500 1503 1505 1508 1510 1512 1514 1516 1517 1518 1519 1520 1521 1522 1522 1523 1523 1524 1524 1525 1526 1527 1528 1529 1530 1531 1531 1532 1532 1533 1533 1534 1534 1534 1534 1534 1534 1534 1534 1534 1535 1537 1538 1540 1541 1542 1543 1543 1544 1545 1545 1546 1546 1546 1547 1547 1547 1547 1547 1547 1547 1547 1547 1547 1547 1547 1547 1548 1548 1548 1547 1547 1547 1548 1548 1548 1548 1548 1549 1549 1550 1550 1549 1549 1549
1501 1504 1507 1508 1511 1513 1514 1516 1517 1518 1520 1521 1522 1522 1523 1523 1524 1525 1525 1526 1527 1528 1529 1531 1531 1532 1532 1533 1533 1534 1534 1535 1535 1534 1535 1535 1536 1536 1536 1536 1537 1538 1539 1541 1542 1543 1544 1544 1545 1546 1546 1547 1547 1548 1548 1548 1548 1548 1548 1548 1548 1548 1548 1548 1548 1548 1548 1548 1548 1548 1548 1548 1548 1548 1549 1549 1549 1549 1550 1550 1550 1551 1551 1551 1551
1502 1505 1507 1509 1511 1513 1515 1516 1518 1519 1520 1521 1522 1523 1523 1524 1525 1526 1526 1527 1528 1529 1530 1532 1532 1533 1534 1534 1534 1535 1536 1536 1536 1535 1535 1536 1537 1537 1537 1538 1538 1540 1541 1541 1543 1544 1545 1545 1546 1547 1547 1548 1548 1548 1549 1549 1549 1550 1550 1550 1549 1549 1549 1549 1549 1549 1549 1549 1549 1549 1549 1549 1549 1549 1549 1550 1550 1550 1550 1551 1551 1551 1552 1552 1552
1503 1505 1508 1510 1512 1513 1515 1517 1518 1519 1520 1521 1522 1523 1524 1525 1525 1526 1527 1528 1529 1530 1531 1532 1533 1534 1535 1535 1536 1536 1537 1537 1537 1536 1537 1537 1538 1538 1538 1539 1540 1541 1542 1542 1544 1545 1545 1546 1546 1547 1548 1549 1549 1549 1550 1551 1551 1551 1551 1551 1550 1550 1550 1549 1549 1549 1549 1549 1550 1550 1549 1549 1549 1550 1550 1550 1551 1551 1551 1551 1552 1552 1553 1553 1554
1504 1506 1508 1511 1512 1514 1516 1517 1519 1520 1521 1522 1523 1524 1524 1525 1526 1527 1528 1529 1530 1531 1532 1533 1534 1535 1536 1536 1537 1537 1538 1538 1538 1538 1538 1538 1539 1539 1540 1540 1541 1542 1543 1543 1544 1546 1546 1547 1547 1547 1548 1549 1550 1550 1551 1552 1552 1552 1552 1551 1551 1550 1550 1550 1550 1551 1551 1551 1550 1550 1550 1550 1550 1550 1551 1551 1551 1552 1552 1552 1553 1553 1554 1554 1555
1505 1507 1509 1511 1513 1515 1516 1518 1519 1520 1521 1522 1524 1524 1525 1526 1527 1528 1529 1530 1531 1532 1533 1534 1534 1535 1536 1537 1538 1538 1539 1539 1539 1539 1539 1539 1540 1540 1541 1542 1543 1543 1544 1544 1545 1547 1548 1548 1548 1548 1549 1550 1551 1552 1553 1553 1553 1553 1553 1552 1551 1551 1551 1552 1552 1552 1552 1552 1552 1551 1551 1551 1551 1551 1551 1552 1552 1552 1553 1553 1554 1554 1555 1555 1555
1506 1507 1510 1512 1514 1515 1517 1518 1519 1520 1522 1523 1524 1525 1526 1527 1528 1529 1530 1531 1531 1532 1533 1534 1535 1536 1537 1537 1538 1539 1540 1540 1540 1541 1540 1541 1541 1541 1542 1543 1544 1545 1546 1546 1546 1548 1549 1549 1549 1550 1550 1551 1552 1553 1554 1554 1554 1554 1554 1553 1552 1552 1552 1553 1553 1553 1553 1553 1553 1553 1552 1552 1552 1552 1552 1553 1553 1553 1554 1554 1555 1555 1556 1556 1556
1506 1508 1510 1512 1514 1515 1517 1518 1519 1521 1522 1524 1525 1525 1526 1527 1528 1529 1530 1531 1532 1533 1534 1535 1535 1536 1537 1538 1539 1540 1541 1541 1542 1542 1542 1542 1542 1543 1543 1544 1546 1546 1547 1547 1548 1549 1550 1551 1551 1551 1552 1553 1554 1555 1555 1555 1555 1555 1555 1554 1554 1553 1553 1554 1554 1554 1554 1554 1554 1554 1553 1553 1553 1553 1553 1553 1553 1554 1554 1555 1555 1556 1556 1557 1557
1507 1509 1511 1513 1514 1516 1517 1519 1520 1521 1523 1524 1525 1526 1527 1528 1529 1530 1531 1532 1533 1534 1535 1536 1536 1537 1538 1539 1540 1541 1542 1542 1543 1543 1544 1544 1543 1544 1545 1546 1547 1548 1548 1549 1549 1550 1551 1552 1552 1552 1553 1554 1555 1556 1557 1557 1556 1556 1556 1555 1555 1555 1555 1555 1555 1555 1555 1555 1555 1555 1555 1554 1554 1554 1555 1554 1554 1555 1555 1555 1556 1556 1557 1557 1557
1508 1510 1512 1513 1515 1516 1518 1519 1520 1522 1524 1525 1526 1527 1528 1529 1530 1531 1532 1533 1534 1535 1536 1536 1537 1538 1539 1540 1541 1542 1542 1543 1544 1544 1545 1545 1545 1545 1546 1547 1548 1549 1550 1550 1551 1551 1552 1553 1553 1553 1554 1556 1557 1557 1558 1558 1557 1557 1557 1556 1556 1556 1557 1557 1557 1557 1557 1557 1556 1556 1556 1556 1556 1556 1556 1556 1556 1556 1556 1556 1557 1557 1557 1558 1558
1508 1511 1512 1514 1515 1517 1518 1520 1521 1523 1524 1525 1527 1528 1529 1530 1531 1532 1533 1534 1535 1536 1536 1537 1538 1539 1540 1541 1541 1542 1543 1544 1545 1546 1546 1547 1547 1547 1548 1549 1549 1550 1551 1552 1552 1552 1553 1553 1554 1554 1555 1557 1557 1558 1558 1559 1559 1558 1558 1558 1558 1558 1558 1558 1558 1558 1558 1558 1558 1558 1558 1557 1557 1558 1558 1558 1558 1558 1558 1558 1558 1558 1558 1558 1559
1509 1511 1513 1514 1516 1517 1519 1520 1522 1523 1525 1526 1527 1528 1530 1531 1531 1532 1533 1535 1535 1536 1537 1537 1538 1539 1540 1541 1541 1542 1543 1544 1545 1546 1548 1549 1549 1549 1549 1550 1551 1551 1552 1553 1553 1554 1554 1554 1555 1555 1556 1557 1558 1559 1559 1560 1560 1560 1560 1560 1560 1560 1560 1560 1560 1560 1560 1560 1560 1560 1560 1559 1559 1559 1559 1559 1559 1559 1559 1559 1559 1559 1559 1559 1559
1510 1511 1513 1514 1516 1517 1519 1520 1522 1524 1525 1526 1528 1529 1530 1531 1532 1533 1534 1535 1536 1537 1537 1538 1539 1540 1540 1541 1542 1543 1544 1545 1546 1547 1549 1550 1551 1551 1551 1551 1552 1553 1553 1554 1554 1555 1555 1555 1556 1556 1557 1558 1559 1560 1560 1561 1561 1561 1562 1562 1562 1561 1561 1561 1561 1561 1561 1562 1561 1562 1562 1561 1561 1561 1561 1561 1561 1561 1561 1561 1561 1561 1561 1561 1561
1511 1512 1513 1514 1516 1517 1519 1520 1522 1524 1525 1526 1528 1529 1531 1532 1533 1533 1534 1535 1536 1537 1538 1539 1540 1541 1541 1542 1543 1544 1545 1546 1547 1547 1549 1550 1552 1552 1552 1553 1553 1553 1554 1555 1555 1556 1556 1557 1556 1557 1558 1559 1560 1561 1562 1562 1563 1563 1563 1563 1563 1563 1563 1563 1563 1563 1563 1563 1563 1563 1563 1563 1563 1563 1563 1563 1563 1562 1562 1562 1562 1562 1562 1562 1562
1511 1512 1514 1515 1516 1518 1519 1520 1522 1523 1525 1526 1528 1529 1530 1532 1533 1534 1535 1536 1537 1538 1539 1540 1541 1542 1542 1543 1544 1545 1546 1546 1547 1547 1548 1550 1552 1553 1553 1554 1554 1554 1555 1555 1556 1557 1557 1557 1557 1557 1558 1560 1561 1562 1562 1563 1564 1564 1565 1565 1565 1565 1564 1564 1564 1564 1564 1564 1564 1564 1564 1564 1565 1565 1565 1565 1564 1564 1564 1564 1564 1564 1564 1564 1564
1511 1513 1514 1515 1516 1518 1519 1520 1521 1523 1525 1526 1528 1529 1531 1532 1533 1534 1535 1536 1537 1538 1539 1541 1542 1542 1543 1544 1545 1545 1546 1547 1548 1548 1549 1550 1551 1554 1554 1554 1555 1555 1555 1556 1557 1557 1558 1558 1558 1558 1559 1560 1562 1562 1563 1564 1565 1566 1566 1566 1566 1566 1566 1566 1566 1566 1566 1566 1566 1566 1566 1566 1566 1566 1566 1566 1566 1566 1566 1565 1565 1565 1565 1565 1565
1512 1513 1514 1516 1517 1518 1519 1520 1521 1523 1525 1526 1528 1529 1531 1532 1533 1534 1535 1537 1538 1539 1540 1541 1542 1543 1544 1544 1545 1546 1547 1548 1548 1549 1551 1551 1551 1553 1555 1555 1555 1556 1556 1556 1557 1558 1558 1559 1559 1559 1560 1561 1562 1563 1564 1565 1566 1566 1567 1567 1567 1567 1567 1567 1567 1567 1567 1567 1567 1567 1567 1567 1567 1567 1567 1567 1567 1567 1567 1567 1567 1566 1566 1566 1566
1511 1513 1514 1516 1517 1518 1518 1520 1521 1523 1525 1526 1528 1529 1530 1531 1533 1534 1535 1537 1538 1539 1540 1541 1542 1543 1544 1545 1546 1547 1548 1548 1548 1549 1552 1553 1552 1552 1554 1555 1556 1556 1556 1557 1557 1558 1559 1559 1560 1560 1561 1562 1562 1563 1564 1566 1567 1567 1568 1568 1568 1568 1568 1568 1568 1568 1568 1568 1568 1568 1568 1568 1568 1568 1568 1568 1568 1568 1568 1568 1568 1567 1567 1567 1567
1511 1513 1514 1516 1517 1518 1519 1520 1522 1523 1525 1526 1527 1528 1530 1531 1532 1534 1535 1537 1538 1539 1540 1541 1542 1543 1544 1545 1546 1547 1548 1548 1548 1549 1551 1554 1553 1552 1554 1555 1556 1556 1557 1557 1558 1558 1559 1559 1560 1561 1562 1562 1563 1564 1565 1566 1567 1568 1568 1568 1568 1569 1569 1569 1569 1569 1569 1569 1569 1569 1569 1569 1569 1569 1569 1569 1569 1569 1569 1569 1568 1568 1568 1568 1568
1511 1513 1514 1516 1517 1518 1519 1520 1522 1523 1524 1526 1527 1528 1530 1531 1532 1533 1535 1536 1538 1539 1540 1541 1542 1543 1544 1545 1546 1546 1547 1548 1549 1549 1550 1553 1553 1553 1553 1554 1556 1556 1557 1557 1558 1558 1558 1559 1560 1562 1562 1563 1564 1564 1565 1566 1567 1568 1568 1569 1569 1569 1569 1570 1570 1570 1570 1570 1570 1570 1570 1570 1570 1570 1570 1569 1569 1569 1569 1569 1569 1569 1568 1568 1568
1511 1513 1514 1516 1517 1518 1519 1521 1522 1523 1524 1525 1527 1528 1530 1531 1532 1533 1534 1536 1537 1538 1540 1541 1542 1543 1544 1545 1546 1546 1547 1548 1549 1549 1550 1551 1552 1552 1553 1554 1555 1556 1557 1557 1557 1558 1558 1559 1560 1562 1563 1564 1564 1565 1565 1566 1567 1568 1569 1569 1569 1570 1570 1570 1571 1571 1571 1571 1570 1570 1570 1571 1571 1571 1570 1570 1570 1570 1570 1570 1569 1569 1569 1569 1569
1511 1513 1513 1515 1516 1517 1519 1520 1522 1523 1524 1525 1526 1528 1529 1530 1531 1532 1533 1534 1536 1538 1539 1540 1542 1543 1544 1545 1545 1546 1547 1548 1548 1549 1550 1551 1551 1552 1552 1553 1554 1555 1556 1557 1557 1558 1558 1559 1560 1562 1563 1564 1565 1565 1566 1566 1567 1568 1569 1569 1570 1570 1571 1571 1571 1572 1572 1572 1571 1571 1571 1571 1571 1571 1571 1571 1570 1570 1570 1570 1570 1569 1569 1569 1569
1511 1512 1513 1514 1515 1517 1519 1520 1521 1522 1523 1524 1526 1527 1528 1529 1529 1531 1532 1534 1536 1537 1538 1540 1541 1542 1543 1544 1545 1547 1548 1548 1548 1549 1550 1551 1551 1551 1552 1553 1554 1555 1556 1556 1557 1557 1558 1558 1560 1562 1563 1564 1565 1565 1566 1567 1567 1568 1569 1569 1570 1571 1571 1571 1572 1572 1572 1573 1573 1572 1572 1572 1572 1572 1572 1571 1571 1571 1571 1571 1570 1570 1570 1569 1569
1511 1511 1512 1513 1515 1517 1518 1519 1520 1521 1522 1524 1525 1526 1527 1527 1528 1530 1532 1534 1536 1537 1539 1539 1540 1541 1543 1543 1544 1546 1548 1548 1549 1549 1550 1550 1550 1551 1551 1552 1553 1554 1555 1556 1557 1557 1558 1558 1560 1561 1563 1564 1565 1566 1566 1567 1567 1568 1569 1569 1570 1571 1571 1572 1572 1573 1573 1573 1573 1573 1573 1573 1573 1573 1572 1572 1572 1571 1571 1571 1571 1570 1570 1570 1569
1510 1511 1511 1512 1514 1516 1517 1519 1520 1521 1522 1523 1524 1525 1526 1526 1528 1530 1531 1533 1536 1537 1538 1539 1540 1542 1543 1543 1544 1545 1547 1548 1549 1549 1549 1550 1550 1550 1551 1551 1552 1553 1555 1556 1556 1557 1557 1558 1559 1561 1562 1563 1565 1566 1566 1567 1567 1568 1569 1570 1570 1571 1572 1572 1573 1573 1573 1574 1574 1574 1574 1573 1573 1573 1573 1572 1572 1572 1572 1571 1571 1571 1570 1570 1570
1509 1510 1511 1512 1514 1515 1517 1518 1519 1520 1521 1522 1523 1523 1524 1525 1527 1528 1530 1533 1535 1537 1537 1538 1540 1542 1543 1543 1544 1544 1545 1547 1549 1548 1548 1549 1549 1550 1550 1551 1552 1553 1554 1555 1556 1556 1557 1558 1559 1561 1562 1563 1565 1566 1566 1567 1567 1568 1569 1570 1570 1571 1572 1573 1573 1574 1574 1574 1574 1574 1574 1574 1574 1573 1573 1572 1572 1572 1572 1571 1571 1571 1571 1570 1570
1509 1510 1511 1512 1513 1515 1516 1517 1518 1519 1520 1520 1521 1522 1522 1524 1526 1527 1530 1533 1535 1536 1537 1537 1539 1541 1541 1543 1544 1544 1545 1546 1548 1548 1548 1548 1549 1549 1550 1550 1551 1552 1553 1554 1555 1556 1557 1558 1560 1561 1562 1563 1564 1566 1567 1567 1567 1568 1569 1569 1570 1571 1572 1573 1573 1574 1574 1574 1574 1574 1574 1574 1574 1573 1573 1572 1572 1572 1572 1572 1571 1571 1571 1571 1570
1509 1510 1511 1512 1513 1514 1515 1516 1517 1518 1519 1519 1520 1521 1522 1523 1525 1527 1530 1532 1533 1535 1536 1535 1537 1539 1540 1541 1542 1543 1543 1545 1547 1547 1547 1548 1548 1549 1549 1550 1550 1551 1553 1554 1555 1556 1557 1558 1560 1561 1561 1562 1564 1566 1567 1567 1567 1568 1569 1569 1570 1571 1572 1572 1573 1574 1574 1574 1574 1574 1574 1574 1574 1573 1573 1572 1573 1573 1572 1572 1571 1571 1571 1571 1571
1508 1509 1510 1511 1512 1513 1514 1515 1516 1517 1518 1519 1520 1520 1521 1523 1525 1527 1528 1529 1531 1533 1534 1534 1536 1538 1539 1539 1540 1541 1542 1544 1545 1546 1546 1547 1548 1548 1549 1549 1550 1551 1552 1553 1554 1555 1557 1558 1559 1560 1561 1562 1564 1565 1566 1567 1567 1568 1568 1569 1570 1570 1571 1572 1573 1573 1574 1574 1574 1574 1574 1574 1574 1574 1573 1573 1573 1573 1573 1572 1572 1572 1571 1571 1571
1508 1509 1510 1511 1512 1513 1514 1514 1515 1516 1517 1518 1519 1520 1521 1523 1525 1526 1527 1528 1530 1532 1533 1533 1535 1537 1538 1539 1539 1540 1541 1542 1544 1545 1545 1546 1547 1548 1548 1549 1550 1550 1551 1552 1553 1554 1556 1557 1558 1560 1561 1562 1564 1565 1566 1567 1567 1568 1568 1569 1569 1570 1571 1572 1572 1573 1573 1574 1574 1574 1574 1574 1574 1574 1574 1574 1574 1573 1573 1573 1572 1572 1571 1571 1571
1508 1509 1510 1511 1512 1512 1513 1513 1514 1516 1517 1518 1518 1519 1520 1522 1524 1525 1526 1527 1530 1532 1533 1533 1534 1536 1537 1538 1538 1539 1540 1541 1543 1544 1545 1546 1547 1547 1548 1548 1549 1550 1550 1551 1552 1553 1555 1556 1558 1559 1560 1562 1563 1565 1566 1567 1567 1568 1568 1569 1569 1570 1571 1572 1572 1573 1573 1574 1574 1574 1574 1574 1574 1574 1574 1574 1574 1573 1573 1573 1572 1572 1572 1571 1571
1508 1509 1510 1510 1511 1511 1512 1513 1514 1515 1516 1516 1517 1518 1519 1521 1522 1524 1525 1526 1528 1531 1532 1533 1533 1534 1535 1536 1537 1538 1539 1540 1542 1543 1544 1545 1547 1547 1547 1548 1549 1549 1550 1550 1551 1552 1554 1556 1558 1559 1560 1561 1563 1564 1565 1566 1567 1568 1568 1569 1569 1570 1571 1571 1572 1573 1573 1574 1574 1574 1574 1574 1575 1575 1575 1575 1574 1574 1574 1573 1573 1572 1572 1572 1572
1508 1509 1510 1510 1510 1510 1511 1512 1513 1514 1514 1515 1516 1517 1518 1520 1521 1523 1524 1524 1526 1528 1530 1531 1532 1533 1534 1535 1535 1537 1538 1539 1540 1541 1543 1545 1547 1548 1547 1547 1548 1549 1549 1550 1550 1552 1553 1555 1557 1559 1560 1561 1562 1563 1564 1565 1566 1567 1568 1569 1569 1570 1571 1571 1572 1573 1573 1574 1574 1574 1574 1575 1575 1575 1575 1575 1575 1574 1574 1574 1573 1573 1573 1573 1573
1508 1509 1509 1509 1509 1510 1511 1511 1511 1512 1513 1514 1515 1516 1517 1518 1520 1522 1523 1524 1525 1527 1529 1530 1531 1532 1533 1534 1534 1535 1537 1538 1539 1540 1542 1544 1546 1547 1547 1547 1548 1548 1549 1549 1550 1551 1553 1555 1556 1558 1560 1561 1562 1563 1563 1564 1566 1567 1568 1569 1569 1570 1570 1571 1572 1572 1573 1574 1574 1574 1575 1575 1575 1575 1575 1575 1575 1575 1575 1574 1574 1573 1573 1574 1574
1508 1508 1508 1509 1509 1510 1510 1510 1511 1511 1512 1513 1514 1514 1515 1516 1518 1520 1521 1523 1525 1526 1528 1529 1530 1532 1532 1533 1534 1534 1535 1536 1537 1539 1541 1543 1544 1546 1547 1547 1547 1548 1548 1549 1550 1551 1553 1554 1556 1557 1559 1560 1561 1562 1563 1564 1565 1566 1567 1568 1569 1569 1570 1571 1571 1572 1573 1573 1574 1574 1574 1575 1575 1575 1576 1575 1575 1575 1575 1575 1574 1574 1574 1575 1575
1507 1508 1508 1509 1510 1510 1510 1510 1511 1511 1511 1512 1513 1513 1514 1515 1517 1519 1520 1522 1523 1525 1526 1528 1529 1531 1532 1533 1533 1535 1536 1536 1536 1537 1539 1541 1542 1544 1546 1546 1546 1547 1547 1548 1549 1550 1552 1554 1555 1557 1558 1559 1560 1561 1562 1563 1565 1566 1567 1568 1568 1569 1570 1570 1571 1571 1572 1573 1574 1574 1574 1575 1575 1575 1576 1576 1576 1575 1575 1575 1575 1575 1575 1576 1576
1507 1508 1509 1510 1509 1510 1510 1510 1510 1511 1511 1512 1513 1513 1513 1515 1517 1518 1520 1521 1522 1523 1525 1527 1529 1530 1531 1532 1533 1535 1536 1536 1536 1536 1538 1540 1541 1542 1544 1545 1545 1546 1547 1547 1548 1550 1551 1553 1554 1556 1557 1558 1559 1560 1562 1563 1564 1565 1566 1567 1568 1569 1570 1570 1571 1571 1572 1572 1573 1574 1574 1575 1575 1575 1575 1575 1576 1576 1576 1575 1575 1576 1576 1576 1577
1506 1507 1507 1508 1508 1508 1508 1508 1509 1509 1510 1511 1512 1513 1513 1516 1517 1518 1520 1520 1521 1522 1524 1526 1527 1529 1530 1531 1532 1533 1534 1534 1535 1535 1536 1538 1540 1541 1543 1544 1545 1545 1546 1547 1548 1549 1550 1552 1553 1555 1556 1557 1558 1559 1561 1562 1563 1565 1566 1567 1568 1569 1570 1570 1570 1571 1571 1572 1572 1573 1574 1575 1575 1575 1575 1575 1575 1576 1576 1576 1576 1576 1577 1577 1577
1504 1504 1505 1505 1505 1506 1506 1506 1507 1507 1508 1509 1510 1512 1513 1515 1516 1518 1519 1520 1521 1522 1524 1525 1526 1529 1530 1530 1531 1532 1533 1534 1534 1535 1535 1536 1539 1540 1541 1543 1544 1545 1546 1546 1547 1548 1549 1551 1552 1553 1555 1556 1558 1559 1560 1561 1562 1564 1565 1566 1567 1568 1569 1570 1570 1571 1571 1571 1572 1573 1573 1574 1574 1574 1575 1575 1575 1575 1575 1576 1576 1576 1577 1577 1578
1503 1503 1504 1504 1505 1506 1506 1505 1506 1506 1507 1507 1508 1510 1512 1513 1514 1516 1517 1519 1520 1522 1523 1524 1525 1529 1530 1530 1530 1531 1533 1533 1534 1535 1535 1536 1537 1538 1538 1541 1543 1544 1545 1546 1547 1548 1549 1550 1551 1553 1554 1555 1557 1558 1560 1561 1562 1563 1564 1565 1566 1567 1568 1569 1570 1570 1570 1571 1571 1572 1573 1573 1573 1574 1575 1575 1575 1575 1575 1576 1576 1576 1577 1577 1578
1503 1503 1504 1505 1506 1506 1506 1507 1507 1507 1508 1507 1508 1509 1510 1512 1513 1514 1515 1517 1519 1521 1523 1523 1525 1529 1529 1529 1530 1531 1533 1534 1534 1534 1535 1535 1536 1536 1537 1539 1542 1543 1545 1546 1546 1547 1548 1550 1551 1552 1553 1555 1556 1557 1559 1560 1561 1562 1563 1564 1565 1567 1567 1568 1569 1569 1570 1570 1571 1572 1572 1573 1573 1574 1574 1575 1575 1575 1575 1575 1576 1576 1577 1577 1577
1503 1503 1504 1505 1506 1506 1507 1507 1508 1509 1509 1509 1509 1508 1509 1510 1510 1511 1512 1514 1517 1519 1522 1523 1525 1527 1527 1527 1529 1530 1531 1533 1534 1534 1535 1535 1536 1536 1536 1538 1541 1543 1544 1545 1546 1547 1548 1549 1551 1552 1553 1554 1555 1557 1558 1559 1560 1561 1562 1563 1564 1565 1566 1566 1568 1569 1569 1570 1571 1571 1572 1572 1573 1574 1574 1574 1574 1575 1575 1575 1576 1576 1576 1577 1577
1503 1504 1504 1505 1506 1506 1506 1507 1507 1508 1509 1509 1509 1508 1508 1508 1508 1509 1511 1513 1515 1518 1521 1522 1524 1525 1525 1526 1527 1528 1529 1530 1531 1533 1534 1534 1535 1536 1536 1538 1541 1542 1544 1545 1546 1547 1548 1549 1550 1551 1553 1554 1555 1556 1557 1558 1559 1560 1561 1561 1562 1563 1564 1565 1567 1568 1569 1569 1570 1570 1571 1572 1572 1573 1573 1574 1574 1575 1575 1575 1576 1576 1576 1577 1577
1503 1504 1504 1505 1506 1506 1506 1506 1506 1507 1507 1508 1508 1508 1508 1507 1507 1508 1509 1511 1513 1516 1518 1520 1522 1523 1523 1524 1525 1526 1527 1528 1529 1531 1532 1533 1534 1535 1537 1539 1541 1542 1544 1545 1546 1547 1548 1549 1550 1551 1552 1553 1554 1555 1556 1557 1558 1559 1560 1561 1561 1562 1563 1564 1565 1566 1568 1569 1569 1570 1570 1571 1572 1572 1573 1574 1574 1575 1575 1575 1576 1576 1576 1576 1576
1503 1504 1504 1505 1505 1505 1505 1505 1506 1507 1507 1507 1507 1507 1507 1507 1507 1508 1508 1509 1511 1514 1516 1518 1519 1520 1521 1521 1523 1524 1525 1526 1528 1529 1530 1532 1534 1535 1536 1538 1540 1541 1543 1545 1546 1547 1548 1549 1550 1551 1551 1552 1553 1554 1556 1556 1557 1558 1559 1560 1561 1562 1563 1564 1564 1565 1566 1567 1568 1569 1570 1571 1572 1572 1573 1573 1574 1575 1575 1575 1575 1576 1576 1576 1576
1503 1504 1504 1504 1504 1505 1504 1505 1506 1507 1507 1507 1507 1507 1507 1507 1507 1507 1508 1509 1510 1512 1514 1515 1516 1518 1519 1519 1521 1522 1522 1524 1525 1526 1528 1531 1533 1535 1536 1537 1539 1541 1542 1544 1545 1546 1548 1548 1549 1550 1551 1552 1553 1554 1555 1556 1556 1557 1558 1559 1560 1561 1562 1563 1564 1564 1565 1566 1567 1568 1569 1570 1571 1572 1572 1573 1574 1575 1575 1575 1575 1575 1575 1575 1576
1503 1503 1503 1504 1504 1504 1504 1504 1505 1506 1507 1507 1507 1507 1507 1506 1506 1507 1507 1508 1509 1511 1512 1513 1514 1515 1516 1517 1519 1520 1521 1522 1523 1524 1526 1528 1532 1533 1535 1536 1538 1540 1541 1543 1544 1545 1547 1548 1549 1550 1550 1551 1552 1553 1554 1555 1556 1557 1558 1559 1560 1561 1562 1563 1563 1564 1564 1565 1566 1567 1568 1570 1571 1572 1573 1574 1574 1574 1574 1575 1575 1575 1575 1575 1575
1502 1502 1502 1503 1503 1503 1504 1504 1504 1505 1506 1507 1506 1506 1506 1506 1506 1506 1507 1508 1509 1509 1510 1511 1512 1513 1514 1515 1517 1518 1519 1521 1522 1523 1524 1527 1529 1532 1533 1535 1537 1538 1540 1542 1543 1545 1546 1547 1548 1549 1550 1550 1551 1552 1553 1554 1555 1556 1557 1558 1559 1561 1562 1563 1563 1564 1564 1565 1566 1567 1568 1569 1571 1572 1573 1574 1574 1574 1574 1574 1574 1575 1575 1575 1576